Weather History for Sand Point, AK

Change the Weather History Date:

Wednesday, January 2, 2013

  Actual Average Record
Temperature  
Mean Temperature 36 °F -  
Max Temperature 39 °F 32 °F 44 °F (2014)
Min Temperature 32 °F 26 °F 12 °F (2012)
Degree Days  
Heating Degree Days 30    
Moisture  
Dew Point 35 °F    
Average Humidity 95    
Maximum Humidity 100    
Minimum Humidity 87    
Precipitation  
Precipitation 0.00 in - - ()
Sea Level Pressure  
Sea Level Pressure 28.81 in    
Wind  
Wind Speed 6 mph (NE)    
Max Wind Speed 20 mph    
Max Gust Speed 24 mph    
Visibility 8 miles    
Events      
Averages and records for this station are not official NWS values.
T = Trace of Precipitation, MM = Missing Value Source: NWS Daily Summary

Daily Weather History Graph

Daily Weather History Graph

Search for Another Location

Airport:

Trip Planner

Search our weather history database for the weather conditions in past years. The results will help you decide how hot, cold, wet, or windy it might be!

Date:

Astronomy

Jan. 02, 2013 Rise Set
Actual Time 10:08 AM AKST 5:24 PM AKST
Civil Twilight 9:23 AM AKST 6:10 PM AKST
Nautical Twilight 8:35 AM AKST 6:57 PM AKST
Astronomical Twilight 7:50 AM AKST 7:42 PM AKST
Moon No Moon Rise 11:55 AM AKST (1/2)
Length of Visible Light 8h 47m
Length of Day
7h 16m
Waning Gibbous, 74% of the Moon is Illuminated
Jan 2
Waning Gibbous
Jan 4
Last Quarter
Jan 11
New
Jan 18
First Quarter
Jan 26
Full

Hourly Weather History & Observations

Time (AKST) Temp. Windchill Dew Point Humidity Pressure Visibility Wind Dir Wind Speed Gust Speed Precip Events Conditions
12:16 AM 35.6 °F 27.5 °F 32.0 °F 87% 29.05 in 10.0 mi SSE 11.5 mph - N/A   Scattered Clouds
12:36 AM 35.6 °F 29.2 °F 33.8 °F 93% 29.05 in 10.0 mi SE 8.1 mph 19.6 mph N/A   Mostly Cloudy
12:56 AM 33.8 °F 29.6 °F 32.0 °F 93% 29.04 in 9.0 mi SE 4.6 mph - N/A   Mostly Cloudy
1:16 AM 33.8 °F 29.6 °F 32.0 °F 93% 29.04 in 10.0 mi ESE 4.6 mph - N/A   Mostly Cloudy
1:36 AM 33.8 °F 30.8 °F 30.2 °F 87% 29.03 in 10.0 mi NE 3.5 mph - N/A   Scattered Clouds
1:56 AM 33.8 °F 30.8 °F 30.2 °F 87% 29.03 in 10.0 mi NE 3.5 mph - N/A   Clear
2:16 AM 32.0 °F 28.7 °F 30.2 °F 93% 29.02 in 10.0 mi NNE 3.5 mph - N/A   Clear
2:36 AM 33.8 °F 30.8 °F 30.2 °F 87% 29.01 in 10.0 mi NE 3.5 mph - N/A   Mostly Cloudy
2:56 AM 33.8 °F - 32.0 °F 93% 29.00 in 10.0 mi Calm Calm - N/A   Mostly Cloudy
3:16 AM 33.8 °F - 30.2 °F 87% 29.00 in 10.0 mi Calm Calm - N/A   Mostly Cloudy
3:36 AM 33.8 °F - 30.2 °F 87% 28.99 in 10.0 mi Calm Calm - N/A   Mostly Cloudy
3:56 AM 35.6 °F 32.8 °F 32.0 °F 87% 28.97 in 10.0 mi NE 3.5 mph - N/A   Mostly Cloudy
4:16 AM 35.6 °F 30.7 °F 33.8 °F 93% 28.96 in 5.0 mi NE 5.8 mph - N/A   Overcast
4:36 AM 35.6 °F 31.7 °F 33.8 °F 93% 28.96 in 9.0 mi NE 4.6 mph - N/A   Overcast
4:56 AM 33.8 °F 28.6 °F 33.8 °F 100% 28.95 in 8.0 mi NE 5.8 mph - N/A   Overcast
5:16 AM 33.8 °F 27.0 °F 33.8 °F 100% 28.93 in 8.0 mi NE 8.1 mph - N/A   Overcast
5:36 AM 33.8 °F 26.4 °F 32.0 °F 93% 28.91 in 7.0 mi NE 9.2 mph 16.1 mph N/A   Overcast
5:56 AM 35.6 °F 27.1 °F 33.8 °F 93% 28.91 in 8.0 mi NNE 12.7 mph 24.2 mph N/A   Overcast
6:16 AM 33.8 °F 25.8 °F 32.0 °F 93% 28.89 in 10.0 mi NNE 10.4 mph 23.0 mph N/A   Overcast
6:36 AM 33.8 °F 24.8 °F 32.0 °F 93% 28.87 in 5.0 mi NNE 12.7 mph 21.9 mph N/A   Overcast
6:56 AM 33.8 °F 25.3 °F 33.8 °F 100% 28.86 in 1.5 mi NE 11.5 mph 20.7 mph N/A   Overcast
7:16 AM 35.6 °F 28.0 °F 33.8 °F 93% 28.86 in 1.5 mi NE 10.4 mph 18.4 mph N/A   Overcast
7:36 AM 35.6 °F 28.6 °F 33.8 °F 93% 28.84 in 1.5 mi NNE 9.2 mph 19.6 mph N/A   Overcast
7:56 AM 35.6 °F 28.6 °F 35.6 °F 100% 28.83 in 8.0 mi NNE 9.2 mph 17.3 mph N/A   Overcast
8:16 AM 35.6 °F 32.8 °F 35.6 °F 100% 28.82 in 3.0 mi NE 3.5 mph 17.3 mph N/A   Overcast
8:36 AM 37.4 °F 30.8 °F 37.4 °F 100% 28.82 in 3.0 mi ENE 9.2 mph - N/A   Overcast
8:56 AM 37.4 °F 34.9 °F 37.4 °F 100% 28.81 in 7.0 mi NE 3.5 mph - N/A   Overcast
9:16 AM 37.4 °F 33.8 °F 37.4 °F 100% 28.80 in 7.0 mi NE 4.6 mph - N/A   Overcast
9:36 AM 37.4 °F 32.8 °F 37.4 °F 100% 28.79 in 3.0 mi East 5.8 mph - N/A   Overcast
9:56 AM 37.4 °F 33.8 °F 37.4 °F 100% 28.81 in 3.0 mi ENE 4.6 mph - N/A   Overcast
10:16 AM 37.4 °F - 37.4 °F 100% 28.79 in 10.0 mi Calm Calm - N/A   Mostly Cloudy
10:36 AM 37.4 °F 34.9 °F 37.4 °F 100% 28.79 in 10.0 mi ENE 3.5 mph - N/A   Mostly Cloudy
10:56 AM 37.4 °F 34.9 °F 37.4 °F 100% 28.79 in 10.0 mi NE 3.5 mph - N/A   Mostly Cloudy
11:16 AM 37.4 °F 32.8 °F 35.6 °F 93% 28.79 in 10.0 mi NE 5.8 mph - N/A   Mostly Cloudy
11:36 AM 37.4 °F 32.1 °F 35.6 °F 93% 28.78 in 10.0 mi NNE 6.9 mph - N/A   Mostly Cloudy
11:56 AM 37.4 °F 33.8 °F 35.6 °F 93% 28.77 in 10.0 mi East 4.6 mph - N/A   Mostly Cloudy
12:16 PM 37.4 °F 33.8 °F 35.6 °F 93% 28.78 in 10.0 mi NE 4.6 mph - N/A   Mostly Cloudy
12:36 PM 37.4 °F 32.8 °F 35.6 °F 93% 28.76 in 10.0 mi NE 5.8 mph - N/A   Mostly Cloudy
12:56 PM 39.2 °F 35.0 °F 35.6 °F 87% 28.75 in 10.0 mi NE 5.8 mph - N/A   Mostly Cloudy
1:16 PM 37.4 °F 33.8 °F 35.6 °F 93% 28.75 in 10.0 mi ENE 4.6 mph - N/A   Mostly Cloudy
1:36 PM 37.4 °F 34.9 °F 35.6 °F 93% 28.73 in 10.0 mi NE 3.5 mph - N/A   Overcast
1:56 PM 37.4 °F 34.9 °F 35.6 °F 93% 28.72 in 10.0 mi NE 3.5 mph - N/A   Mostly Cloudy
2:16 PM 37.4 °F 32.8 °F 35.6 °F 93% 28.71 in 10.0 mi NE 5.8 mph - N/A   Mostly Cloudy
2:36 PM 37.4 °F 32.8 °F 35.6 °F 93% 28.71 in 10.0 mi NE 5.8 mph - N/A   Overcast
2:56 PM 37.4 °F 32.1 °F 35.6 °F 93% 28.70 in 10.0 mi NE 6.9 mph - N/A   Overcast
3:16 PM 37.4 °F 32.1 °F 35.6 °F 93% 28.69 in 10.0 mi NE 6.9 mph - N/A   Overcast
3:36 PM 37.4 °F 33.8 °F 35.6 °F 93% 28.69 in 10.0 mi NE 4.6 mph - N/A   Overcast
3:56 PM 37.4 °F 33.8 °F 35.6 °F 93% 28.69 in 10.0 mi ENE 4.6 mph - N/A   Mostly Cloudy
4:36 PM 37.4 °F 33.8 °F 35.6 °F 93% 28.67 in 10.0 mi NNE 4.6 mph - N/A   Mostly Cloudy
4:56 PM 37.4 °F 32.8 °F 35.6 °F 93% 28.68 in 10.0 mi NE 5.8 mph - N/A   Overcast
5:16 PM 37.4 °F 32.8 °F 35.6 °F 93% 28.67 in 10.0 mi NE 5.8 mph - N/A   Overcast
5:36 PM 37.4 °F 32.1 °F 35.6 °F 93% 28.66 in 10.0 mi NE 6.9 mph - N/A   Overcast
5:56 PM 37.4 °F 33.8 °F 35.6 °F 93% 28.66 in 5.0 mi NNE 4.6 mph - N/A   Overcast
6:36 PM - - - N/A% 28.66 in - NNE 5.8 mph - N/A   Unknown
6:56 PM 37.4 °F 33.8 °F 35.6 °F 93% 28.65 in 6.0 mi NNE 4.6 mph - N/A   Overcast
7:16 PM 37.4 °F 34.9 °F 35.6 °F 93% 28.66 in 6.0 mi NNE 3.5 mph - N/A   Overcast
7:36 PM 35.6 °F - 33.8 °F 93% 28.66 in 6.0 mi Calm Calm - N/A   Overcast
7:56 PM 35.6 °F - 33.8 °F 93% 28.66 in - Calm Calm - N/A   Overcast
8:16 PM 35.6 °F - 35.6 °F 100% 28.66 in 10.0 mi Calm Calm - N/A   Overcast
8:36 PM 35.6 °F 29.9 °F 35.6 °F 100% 28.68 in 5.0 mi WSW 6.9 mph - N/A   Overcast
8:56 PM 35.6 °F 29.9 °F 35.6 °F 100% 28.68 in 10.0 mi WSW 6.9 mph - N/A   Overcast
9:16 PM 35.6 °F 30.7 °F 35.6 °F 100% 28.69 in 10.0 mi SW 5.8 mph - N/A   Overcast
9:36 PM 35.6 °F 26.2 °F 33.8 °F 93% 28.71 in 10.0 mi South 15.0 mph - N/A   Mostly Cloudy
9:56 PM 35.6 °F 26.6 °F 35.6 °F 100% 28.72 in 10.0 mi SSE 13.8 mph - N/A   Mostly Cloudy
10:16 PM 35.6 °F 27.1 °F 35.6 °F 100% 28.74 in 10.0 mi South 12.7 mph - N/A   Overcast
10:36 PM 35.6 °F 31.7 °F 35.6 °F 100% 28.76 in 10.0 mi WSW 4.6 mph - N/A   Overcast
10:56 PM 35.6 °F 28.6 °F 35.6 °F 100% 28.78 in 10.0 mi South 9.2 mph - N/A   Overcast
11:16 PM 35.6 °F 25.9 °F 35.6 °F 100% 28.80 in 10.0 mi South 16.1 mph - N/A   Overcast
11:36 PM 35.6 °F 25.2 °F 35.6 °F 100% 28.81 in 10.0 mi South 18.4 mph - N/A   Overcast
11:56 PM 35.6 °F 24.8 °F 33.8 °F 93% 28.82 in 10.0 mi South 19.6 mph - N/A   Overcast